Погода в Успенке

Россия / Республика Тыва     51°14′05″N   94°14′50″E
темп.,
°C
ветер,
м/с
пор.,
м/с
влажн.,
%
обл.,
%
осадки,
мм/ч
давл.,
гПа
погр.,
м
31 июля, сб
сб3101:00+16юз2243100 0.0 100711
04:00+15з5967100 0.0 1011438
07:00+14з4878100 0.1 1014543
10:00+13зсз4790100 3.1 1016476
13:00+13сз3485100 4.8 1016530
16:00+14зсз3479100 0.6 1015524
19:00+13з2284100 0.7 101591
22:00+13зюз1180100 0.0 101513
1 августа, вс
вс101:00+13ююз1179100 0.0 101412
04:00+12юз1183100 0.0 101313
07:00+13зюз2378100 0.0 1012167
10:00+16зсз3563100 0.0 1011683
13:00+18сз3653100 0.0 10091323
16:00+19в1348100 0.1 1007771
19:00+20сз2349100 0.2 1007224
22:00+13юз326448 0.0 100924
2 августа, пн
пн201:00+13юз4560100 0.0 100968
04:00+13юз3463100 0.0 100953
07:00+15зюз255851 0.0 1009190
10:00+20сз573878 0.0 10091829
13:00+23сз573199 0.0 10072549
16:00+24сз772997 0.0 10063124
19:00+22ссз473618 0.0 1007626
22:00+14ююз22560 0.0 101013
3 августа, вт
вт301:00+12ююз11630 0.0 101113
04:00+11ю11684 0.0 101112
07:00+14всв22620 0.0 1012167
10:00+20св33445 0.0 1010835
13:00+25ссв22325 0.0 10071359
16:00+27с33286 0.0 10052040
19:00+25с34370 0.0 1004133
22:00+17ююз325782 0.1 100518
4 августа, ср
ср401:00+15зсз496684 0.1 1007213
04:00+15з2380100 0.4 100886
07:00+15ююз118560 1.3 1008101
10:00+20сз335787 0.1 1007953
13:00+23с3342100 0.1 10061611
16:00+25ссз343580 0.1 10042087
19:00+22сз344384 0.1 1004532
22:00+15юз3373100 0.3 100642